Home > Weather > Cardiff > Past weeks

Flag for United Kingdom Past Weather in Cardiff, Wales, United Kingdom — Yesterday and Last 2 Weeks

Now
61 °F

Partly sunny.


Feels Like: 61 °F
Forecast: 52 / 70 °F
Wind: 9 mph from West

Location: Wales Airport

Current Time: May 29, 2016 at 12:49:06 PM

Latest Report: May 29, 2016 at 12:20 PM


Visibility: N/A

Pressure: 29.95 "Hg

Humidity: 77%

Dew Point: 54 °F

Location of CardiffLocation

Past Weather in Cardiff — Graph

°F

Cardiff Temperature Yesterday

Maximum temperature yesterday: 68 °F (at 3:20 PM)
Minimum temperature yesterday: 54 °F (at 3:50 AM)
Average temperature yesterday: 61 °F

High & Low Weather Summary for the Past Weeks

 TemperatureHumidityPressure
High68 °F (May 27, 5:20 PM)100% (May 14, 11:50 PM)30.21 "Hg (May 14, 11:50 PM)
Low41 °F (May 16, 3:50 AM)42% (May 26, 4:50 PM)29.59 "Hg (May 18, 7:20 AM)
Average54 °F80%29.98 "Hg
* Reported May 14 11:20 AM — May 29 11:20 AM, Cardiff, Weather by CustomWeather, © 2016

Note: Actual official high and low records may vary slightly from our data, if they occured in-between our weather recording intervals... More about our weather records

Advertising

Cardiff Weather History for the Previous 24 Hours

Scroll right to see more
 ConditionsComfort  
Time TempWeatherWind HumidityBarometerVisibility
11:20 AM
Sun, May 29
64 °FPassing clouds.8 mph64%29.95 "HgN/A
10:50 AM63 °FPassing clouds.7 mph68%29.95 "HgN/A
10:20 AM63 °FMild.6 mph68%29.95 "HgN/A
9:50 AM61 °FCool.6 mph68%29.95 "HgN/A
9:20 AM59 °FCool.8 mph72%29.95 "HgN/A
8:50 AM57 °FCool.10 mph72%29.95 "HgN/A
8:20 AM57 °FCool.12 mph77%29.95 "HgN/A
7:50 AM57 °FCool.12 mph72%29.95 "HgN/A
7:20 AM55 °FCool.10 mph82%29.95 "HgN/A
6:50 AM54 °FCool.10 mph88%29.95 "HgN/A
6:20 AM54 °FCool.8 mph82%29.95 "HgN/A
5:50 AM52 °FCool.10 mph88%29.92 "HgN/A
5:20 AM52 °FCool.9 mph88%29.92 "HgN/A
4:50 AM54 °FCool.6 mph82%29.92 "HgN/A
4:20 AM54 °FCool.7 mph88%29.92 "HgN/A
3:50 AM54 °FCool.7 mph88%29.92 "HgN/A
3:20 AM55 °FCool.8 mph82%29.95 "HgN/A
2:50 AM55 °FCool.10 mph88%29.95 "HgN/A
2:20 AM55 °FCool.10 mph82%29.95 "HgN/A
1:50 AM57 °FCool.10 mph82%29.95 "HgN/A
1:20 AM57 °FCool.10 mph82%29.95 "HgN/A
12:50 AM57 °FCool.9 mph82%29.92 "HgN/A
12:20 AM59 °FCool.8 mph77%29.95 "HgN/A
11:50 PM
Sat, May 28
59 °FPassing clouds.9 mph77%29.95 "HgN/A
11:20 PM59 °FOvercast.7 mph77%29.95 "HgN/A
10:50 PM61 °FPassing clouds.8 mph77%29.95 "HgN/A
10:20 PM61 °FPassing clouds.9 mph77%29.92 "HgN/A
9:50 PM63 °FPartly sunny.10 mph73%29.92 "HgN/A
9:20 PM63 °FPartly sunny.10 mph73%29.92 "HgN/A
8:50 PM64 °FMild.10 mph68%29.92 "HgN/A
8:20 PM64 °FMild.10 mph68%29.92 "HgN/A
7:50 PM66 °FMild.10 mph64%29.92 "HgN/A
7:20 PM66 °FMild.9 mph64%29.92 "HgN/A
6:50 PM68 °FMild.10 mph56%29.89 "HgN/A
6:20 PM68 °FMild.12 mph60%29.89 "HgN/A
5:50 PM68 °FMild.12 mph60%29.89 "HgN/A
5:20 PM68 °FPassing clouds.10 mph60%29.92 "HgN/A
4:50 PM68 °FPassing clouds.10 mph60%29.92 "HgN/A
4:20 PM68 °FPassing clouds.12 mph60%29.92 "HgN/A
3:50 PM68 °FPassing clouds.10 mph60%29.92 "HgN/A
3:20 PM68 °FPartly sunny.9 mph64%29.95 "HgN/A
2:50 PM66 °FPartly sunny.8 mph64%29.95 "HgN/A
2:20 PM66 °FScattered clouds.8 mph68%29.95 "HgN/A
1:50 PM66 °FBroken clouds.8 mph64%29.95 "HgN/A
1:20 PM64 °FPartly sunny.9 mph73%29.98 "HgN/A
12:50 PM64 °FOvercast.13 mph73%29.98 "HgN/A
12:20 PM63 °FMostly cloudy.12 mph73%29.98 "HgN/A
Weather by CustomWeather, © 2016

See weather overviewHow to use our weather pages